Regional Weather Roundup
Issued by NWS

Home | Current Version | Previous Version | Graphics & Text | Print | Product List | Glossary On
Versions: 1 2 3 4 5 6 7 8 9 10 11 12 13 14 15 16 17 18 19 20 21 22 23 24 25 26 27 28 29 30 31 32 33 34 35 36 37 38 39 40 41 42 43 44 45 46 47 48 49 50
000
ASUS43 KMPX 211901
RWRMN
WEATHER ROUNDUP FOR MINNESOTA
NATIONAL WEATHER SERVICE TWIN CITIES/CHANHASSEN MN
100 PM CST FRI NOV 21 2014


NOTE: "FAIR" INDICATES FEW OR NO CLOUDS BELOW 12,000 FEET WITH NO
SIGNIFICANT WEATHER AND/OR OBSTRUCTIONS TO VISIBILITY. N/A MEANS
CURRENT SKY AND/OR WEATHER CONDITIONS ARE NOT AVAILABLE.

MNZ060>063-068>070-212000-
   Twin Cities Metro

CITY           SKY/WX    TMP DP  RH WIND       PRES   REMARKS
TWIN CITIES    PTSUNNY   26  15  63 S17       30.08F WCI  13
ST PAUL        PTSUNNY   25  16  68 SE21      30.11F WCI  11
CRYSTAL        CLOUDY    28  16  60 S14G24    30.05F WCI  17
BLAINE         PTSUNNY  N/A N/A N/A S17G25    30.05F
LAKEVILLE      SUNNY     25  16  68 S13G22    30.08F WCI  13
EDEN PRAIRIE   SUNNY     29  18  63 S22G28    30.06F WCI  15
SOUTH ST PAUL  MOSUNNY   27  16  62 S15G24    30.10F WCI  15
LAKE ELMO      CLOUDY    27  18  69 S18G24    30.10F WCI  13
$$
MNZ001>005-007-008-013>017-022>024-027-028-212000-
   Northwest Minnesota

CITY           SKY/WX    TMP DP  RH WIND       PRES   REMARKS
BEMIDJI        SUNNY     28  18  66 S10G20    29.78F WCI  18
HALLOCK        MOSUNNY   28  21  74 S22G29    29.65F WCI  15
ROSEAU         MOSUNNY   28  21  74 S20G26    29.66F WCI  15
WARROAD        MOSUNNY   27  19  74 S15G26    29.68F WCI  15
THIEF RVR FALL SUNNY     28  21  74 S18G29    29.71F WCI  16
CROOKSTON      SUNNY     28  23  80 S24G30    29.74F WCI  14
FOSSTON        SUNNY     27  19  74 S25G31    29.76F WCI  11
DETROIT LAKES  SUNNY     30  21  69 S16G22    29.81F WCI  19
MOORHEAD       SUNNY     30  23  74 S22G28    29.80F WCI  17
PARK RAPIDS    SUNNY     28  19  69 S17G29    29.83F WCI  16
MAHNOMEN       FAIR      28  20  72 S23       29.78F WCI  13
$$
MNZ006-009>011-018-025>026-212000-
   North Central Minnesota

CITY           SKY/WX    TMP DP  RH WIND       PRES   REMARKS
BAUDETTE       SUNNY     27  17  66 S18G26    29.69F WCI  14
FLAG ISLAND    MOSUNNY   27  19  74 S20G28    29.64F WCI  13
INTL FALLS     SUNNY     29  15  56 SW13G24   29.74F WCI  19
WASKISH        SUNNY     28  18  64 S10G17    29.75F WCI  19
BIG FORK       SUNNY     28  18  64 S15G24    29.79F WCI  17
LONGVILLE      SUNNY     28  18  64 S20G26    29.85F WCI  15
GRAND RAPIDS   SUNNY     27  16  63 S25G31    29.83F WCI  11
CRANE LAKE     SUNNY     27  16  63 S9G17     29.81F WCI  17
ORR            SUNNY     28  14  54 S15G22    29.77F WCI  17
COOK           SUNNY     27  16  63 S16       29.81F WCI  14
WALKER         FAIR      27  17  65 SW16G22   29.83F WCI  15
$$
MNZ012-019>021-037-212000-
   Northeast Minnesota

CITY           SKY/WX    TMP DP  RH WIND       PRES   REMARKS
DULUTH         MOSUNNY   25  13  60 SW21G29   29.92F WCI  11
ELY            MOSUNNY   28  16  59 SW18G26   29.82F WCI  16
HIBBING        SUNNY     28  15  58 S15G29    29.85F WCI  16
EVELETH        SUNNY     27  14  59 S15G26    29.87F WCI  15
DULUTH HARBOR  SUNNY     28  16  59 SW24      29.98F WCI  14
TWO HARBORS    SUNNY     27  16  63 SW12      29.93F WCI  16
SILVER BAY     MOSUNNY   25  16  68 S16G23    29.92F WCI  12
GRAND MARAIS     N/A     28  20  71 SW26      29.98F WCI  13
G MARAIS ARPRT PTSUNNY   19  10  68 S13G30    29.90F WCI   7
$$
MNZ029>031-032-039>041-046>048-054>057-064-212000-
   West Central Minnesota

CITY           SKY/WX    TMP DP  RH WIND       PRES   REMARKS
FERGUS FALLS   MOSUNNY   25  18  74 S18       29.88F WCI  11
WHEATON        PTSUNNY   28  21  74 S15       29.86F WCI  17
MORRIS         PTSUNNY   28  21  74 S16       29.88F WCI  17
ALEXANDRIA     MOSUNNY   26  19  74 S20G26    29.90F WCI  12
ELBOW LAKE       N/A     25  20  82 S22       29.86F WCI  10
WADENA         SUNNY     27  18  69 S17G23    29.86F WCI  14
GLENWOOD       PTSUNNY   27  21  80 S22       29.91F WCI  12
APPLETON       PTSUNNY   34  23  64 S13       29.90F WCI  25
BENSON         PTSUNNY   28  21  74 SW13G20   29.92F WCI  18
ORTONVILLE     PTSUNNY   30  21  69 S12       29.88F WCI  21
MADISON        PTSUNNY   37  27  65 S20       29.89F
WILLMAR        FAIR      30  21  69 S6        29.96F WCI  24
$$
MNZ033>034-036-042>043-049>051-058-059-212000-
   Central Minnesota

CITY           SKY/WX    TMP DP  RH WIND       PRES   REMARKS
ST CLOUD       SUNNY     27  16  63 S18G25    29.98F WCI  14
SAUK CENTRE    FAIR      26  19  74 S17       29.93F WCI  13
PAYNESVILLE    PTSUNNY   24  18  78 SE17      29.96F WCI  10
AITKIN         SUNNY     30  18  59 S20G26    29.90F WCI  18
PINE RIVER     SUNNY     28  19  69 S18G25    29.90F WCI  16
BRAINERD       SUNNY     24  16  71 S17G29    29.92F WCI  11
STAPLES        SUNNY     27  18  69 S14G23    29.89F WCI  15
LONG PRAIRIE   FAIR      25  19  80 S16G23    29.92F WCI  12
LITTLE FALLS   SUNNY     28  18  64 S13G20    29.95F WCI  18
LITCHFIELD     PTSUNNY   28  21  74 S8G16     29.98F WCI  20
BUFFALO        SUNNY     28  17  63 S12G18    30.03F WCI  18
MAPLE LAKE     MOSUNNY   29  20  68 S9G23     30.02F WCI  21
$$
MNZ037-044-045-052-053-212000-
   East Central Minnesota

CITY           SKY/WX    TMP DP  RH WIND       PRES   REMARKS
PRINCETON      SUNNY     28  18  64 S13G18    30.01F WCI  18
MORA             N/A    N/A N/A N/A MISG        N/A
CAMBRIDGE      SUNNY     27  16  63 S10       30.01F WCI  17
RUSH CITY      SUNNY     23  13  67 S14       30.04F WCI  11
MOOSE LAKE     SUNNY     27  14  59 S14G22    29.95F WCI  15
HINCKLEY       FAIR      27  16  63 S18       30.02F WCI  13
CLOQUET        SUNNY     27  14  59 S14G23    29.93F WCI  15
MCGREGOR       SUNNY     30  19  64 S13G24    29.93F WCI  20
$$
MNZ071>073-080-081-089-090-097-098-212000-
   Southwest Minnesota

CITY           SKY/WX    TMP DP  RH WIND       PRES   REMARKS
MONTEVIDEO     CLOUDY    34  25  69 SW20G28   29.92F WCI  22
GRANITE FALLS  CLOUDY    32  24  73 S15       29.96F WCI  21
CANBY          PTSUNNY   34  25  70 SW20G28   29.91F WCI  22
MARSHALL       PTSUNNY   32  21  64 S18G30    29.93F WCI  20
REDWOOD FALLS  PTSUNNY   31  22  69 S21G29    29.98F WCI  18
OLIVIA         PTSUNNY   32  23  69 S18G28    29.96F WCI  20
PIPESTONE      PTSUNNY   30  25  80 S25       29.92F WCI  16
WINDOM         PTSUNNY   30  21  69 S22G29    29.99F WCI  17
WORTHINGTON    PTSUNNY   30  23  74 S25G31    29.99F WCI  16
JACKSON        PTSUNNY   30  21  69 S20G26    30.03F WCI  18
TRACY          PTSUNNY   32  24  71 S25G37    29.92F WCI  19
SLAYTON        PTSUNNY   30  24  77 S21G32    29.95F WCI  17
$$
MNZ065>067-074>077-082>085-091>093-212000-
   South Central Minnesota

CITY           SKY/WX    TMP DP  RH WIND       PRES   REMARKS
MANKATO        MOSUNNY   27  16  63 S18G28    30.07F WCI  13
NEW ULM        PTSUNNY   27  19  74 S22G31    30.02F WCI  12
ST JAMES       PTSUNNY   28  21  74 S23G30    30.04F WCI  14
FAIRMONT       MOSUNNY   27  18  69 SE23G29   30.06F WCI  12
GLENCOE        MOSUNNY   28  20  72 S15G23    30.03F WCI  17
FARIBAULT      SUNNY     23  16  74 S16G22    30.10F WCI  10
OWATONNA       SUNNY     25  16  68 S18G24    30.09F WCI  11
WASECA         MOSUNNY   25  14  63 S20       30.11F WCI  11
ALBERT LEA     MOSUNNY   25  16  68 S14G23    30.11F WCI  13
$$
MNZ078>079-086>088-094>096-212000-
   Southeast Minnesota

CITY           SKY/WX    TMP DP  RH WIND       PRES   REMARKS
ROCHESTER      SUNNY     22  13  68 S21       30.14F WCI   6
RED WING       MOSUNNY   27  12  54 S14G21    30.15F WCI  15
STANTON        SUNNY     26  15  63 S14G25    30.10F WCI  14
DODGE CENTER   SUNNY     21  16  79 S25G33    30.11F WCI   4
WINONA         MOSUNNY   30  12  47 S12       30.22F WCI  21
AUSTIN         SUNNY     23  16  74 S17G24    30.14F WCI   9
PRESTON        SUNNY     23  12  63 S15       30.17F WCI  10
$$
ABBREVIATIONS USED IN REMARKS
   TC - TEMPERATURES IN CELSIUS
  WCI - WIND CHILL INDEX
   HX - HEAT INDEX
  VSB - VISIBILITY
$$


USA.gov is the U.S. government's official web portal to all federal, state and local government web resources and services.